Weather History for Hugo, OK

Change the Weather History Date:

Friday, August 30, 2013

  Actual Average Record
Temperature  
Mean Temperature 91 °F -  
Max Temperature 105 °F 92 °F 105 °F (2013)
Min Temperature 77 °F 66 °F 73 °F (2014)
Cooling Degree Days 26    
Growing Degree Days 41 (Base 50)    
Moisture  
Dew Point 68 °F    
Average Humidity 47    
Maximum Humidity 77    
Minimum Humidity 26    
Precipitation  
Precipitation 0.00 in - - ()
Sea Level Pressure  
Sea Level Pressure 29.95 in    
Wind  
Wind Speed 3 mph (South)    
Max Wind Speed 8 mph    
Max Gust Speed -    
Visibility 10 miles    
Events      
Averages and records for this station are not official NWS values.
T = Trace of Precipitation, MM = Missing Value Source: NWS Daily Summary

Daily Weather History Graph

Daily Weather History Graph

Search for Another Location

Airport:

Trip Planner

Search our weather history database for the weather conditions in past years. The results will help you decide how hot, cold, wet, or windy it might be!

Date:

Astronomy

Aug. 30, 2013 Rise Set
Actual Time 6:54 AM CDT 7:50 PM CDT
Civil Twilight 6:28 AM CDT 8:15 PM CDT
Nautical Twilight 5:58 AM CDT 8:46 PM CDT
Astronomical Twilight 5:27 AM CDT 9:17 PM CDT
Moon 1:42 AM CDT (8/30) 3:58 PM CDT (8/30)
Length of Visible Light 13h 46m
Length of Day
12h 55m
Waning Crescent, 29% of the Moon is Illuminated
Aug 30
Waning Crescent
Sep 5
New
Sep 12
First Quarter
Sep 19
Full
Sep 26
Last Quarter

Hourly Weather History & Observations

Time (CDT) Temp. Heat Index Dew Point Humidity Pressure Visibility Wind Dir Wind Speed Gust Speed Precip Events Conditions
12:15 AM 83.8 °F 88.3 °F 70.7 °F 64% 29.98 in 10.0 mi East 3.5 mph - N/A   Clear
12:35 AM 83.7 °F 88.3 °F 70.7 °F 65% 29.98 in 10.0 mi ESE 4.6 mph - N/A   Clear
12:55 AM 83.7 °F 87.7 °F 70.0 °F 63% 29.98 in 10.0 mi Calm Calm - N/A   Clear
1:15 AM 84.2 °F 88.1 °F 69.3 °F 61% 29.98 in 10.0 mi Calm Calm - N/A   Clear
1:35 AM 84.6 °F 88.2 °F 68.9 °F 59% 29.98 in 10.0 mi SSE 3.5 mph - N/A   Clear
1:55 AM 84.2 °F 87.9 °F 68.9 °F 60% 29.98 in 10.0 mi South 3.5 mph - N/A   Clear
2:15 AM 83.3 °F 86.9 °F 68.9 °F 62% 29.98 in 10.0 mi South 4.6 mph - N/A   Clear
2:35 AM 83.8 °F 87.5 °F 68.9 °F 61% 29.98 in 10.0 mi South 4.6 mph - N/A   Clear
2:55 AM 83.8 °F 87.3 °F 68.7 °F 60% 29.98 in 10.0 mi South 3.5 mph - N/A   Clear
3:15 AM 83.5 °F 86.9 °F 68.5 °F 61% 29.98 in 10.0 mi South 3.5 mph - N/A   Clear
3:35 AM 83.3 °F 86.6 °F 68.4 °F 61% 29.98 in 10.0 mi Calm Calm - N/A   Clear
3:55 AM 82.6 °F 85.7 °F 68.4 °F 62% 29.98 in 10.0 mi South 3.5 mph - N/A   Clear
4:15 AM 82.4 °F 85.4 °F 68.2 °F 62% 29.98 in 10.0 mi Calm Calm - N/A   Clear
4:35 AM 82.4 °F 85.4 °F 68.0 °F 62% 29.98 in 10.0 mi Calm Calm - N/A   Clear
4:55 AM 82.4 °F 85.2 °F 67.6 °F 61% 29.98 in 10.0 mi South 3.5 mph - N/A   Clear
5:15 AM 82.0 °F 84.7 °F 67.5 °F 61% 29.98 in 10.0 mi Calm Calm - N/A   Clear
5:35 AM 81.3 °F 84.0 °F 67.8 °F 63% 29.98 in 10.0 mi Calm Calm - N/A   Clear
5:55 AM 80.4 °F 83.1 °F 68.0 °F 66% 29.99 in 10.0 mi Calm Calm - N/A   Clear
6:15 AM 78.1 °F - 69.1 °F 74% 29.99 in 10.0 mi Calm Calm - N/A   Clear
6:35 AM 77.9 °F - 70.2 °F 77% 30.00 in 10.0 mi Calm Calm - N/A   Clear
6:55 AM 77.9 °F - 69.8 °F 76% 30.00 in 10.0 mi Calm Calm - N/A   Clear
7:15 AM 77.9 °F - 69.3 °F 75% 30.01 in 10.0 mi Calm Calm - N/A   Clear
7:35 AM 78.1 °F - 69.8 °F 76% 30.02 in 10.0 mi ENE 4.6 mph - N/A   Clear
7:55 AM 79.5 °F - 69.8 °F 72% 30.02 in 10.0 mi East 3.5 mph - N/A   Clear
9:15 AM 87.4 °F 92.3 °F 69.8 °F 56% 30.02 in 10.0 mi Calm Calm - N/A   Clear
9:35 AM 88.9 °F 94.2 °F 70.3 °F 54% 30.03 in 10.0 mi Calm Calm - N/A   Clear
9:55 AM 91.4 °F 97.3 °F 70.5 °F 50% 30.02 in 10.0 mi SSW 3.5 mph - N/A   Clear
10:15 AM 92.5 °F 97.9 °F 69.8 °F 47% 30.02 in 10.0 mi SW 8.1 mph - N/A   Clear
10:35 AM 94.3 °F 99.8 °F 69.4 °F 44% 30.02 in 10.0 mi SW 8.1 mph - N/A   Clear
10:55 AM 96.3 °F 103.3 °F 70.2 °F 43% 30.02 in 10.0 mi SSW 5.8 mph - N/A   Clear
11:15 AM 97.0 °F 103.5 °F 69.4 °F 41% 30.01 in 10.0 mi SSW 6.9 mph - N/A   Clear
11:35 AM 97.9 °F 104.7 °F 69.6 °F 40% 30.01 in 10.0 mi SSW 5.8 mph - N/A   Clear
11:55 AM 99.3 °F 106.3 °F 69.4 °F 38% 30.00 in 10.0 mi WSW 4.6 mph - N/A   Clear
12:15 PM 100.4 °F 107.0 °F 68.9 °F 36% 30.00 in 10.0 mi South 6.9 mph - N/A   Clear
12:35 PM 100.6 °F 106.0 °F 67.8 °F 34% 29.99 in 10.0 mi Calm Calm - N/A   Clear
12:55 PM 102.0 °F 108.8 °F 68.4 °F 34% 29.98 in 10.0 mi SSW 6.9 mph - N/A   Clear
1:15 PM 102.2 °F 108.4 °F 68.4 °F 33% 29.98 in 10.0 mi SSW 5.8 mph - N/A   Clear
1:35 PM 102.9 °F 109.1 °F 68.0 °F 32% 29.97 in 10.0 mi SSW 3.5 mph - N/A   Clear
1:55 PM 103.1 °F 108.7 °F 67.5 °F 31% 29.96 in 10.0 mi Calm Calm - N/A   Clear
2:15 PM 102.0 °F 107.3 °F 67.3 °F 32% 29.95 in 10.0 mi South 6.9 mph - N/A   Scattered Clouds
2:35 PM 104.5 °F 110.7 °F 67.5 °F 30% 29.94 in 10.0 mi South 6.9 mph - N/A   Scattered Clouds
2:55 PM 104.0 °F 109.6 °F 66.6 °F 30% 29.93 in 10.0 mi ENE 3.5 mph - N/A   Clear
3:15 PM 104.9 °F 109.8 °F 66.0 °F 28% 29.92 in 10.0 mi Calm Calm - N/A   Clear
3:35 PM 104.5 °F 109.9 °F 66.4 °F 29% 29.91 in 10.0 mi South 3.5 mph - N/A   Clear
3:55 PM 104.4 °F 108.0 °F 64.6 °F 27% 29.90 in 10.0 mi South 4.6 mph - N/A   Scattered Clouds
4:15 PM 104.9 °F 108.2 °F 64.0 °F 26% 29.90 in 10.0 mi WNW 4.6 mph - N/A   Clear
4:35 PM 104.5 °F 108.3 °F 64.6 °F 27% 29.89 in 10.0 mi Calm Calm - N/A   Scattered Clouds
4:55 PM 104.9 °F 109.8 °F 65.3 °F 28% 29.89 in 10.0 mi South 5.8 mph - N/A   Clear
5:15 PM 104.7 °F 108.6 °F 64.9 °F 27% 29.88 in 10.0 mi SSW 3.5 mph - N/A   Clear
5:35 PM 105.1 °F 109.3 °F 64.4 °F 27% 29.88 in 10.0 mi Calm Calm - N/A   Clear
5:55 PM 104.4 °F 108.8 °F 64.9 °F 28% 29.88 in 10.0 mi Calm Calm - N/A   Clear
6:15 PM 103.8 °F 107.0 °F 64.2 °F 27% 29.88 in 10.0 mi South 3.5 mph - N/A   Clear
6:35 PM 103.3 °F 106.8 °F 64.6 °F 28% 29.88 in 10.0 mi SSE 3.5 mph - N/A   Clear
6:55 PM 102.2 °F 106.2 °F 64.9 °F 30% 29.88 in 10.0 mi SSW 3.5 mph - N/A   Clear
7:15 PM 101.3 °F 105.3 °F 65.1 °F 31% 29.87 in 10.0 mi Calm Calm - N/A   Clear
7:35 PM 99.5 °F 103.9 °F 66.4 °F 34% 29.88 in 10.0 mi Calm Calm - N/A   Clear
7:55 PM 97.9 °F 102.1 °F 66.4 °F 36% 29.88 in 10.0 mi SSE 3.5 mph - N/A   Clear
8:15 PM 96.6 °F 100.3 °F 66.6 °F 37% 29.88 in 10.0 mi Calm Calm - N/A   Clear
8:35 PM 95.4 °F 99.1 °F 67.1 °F 39% 29.88 in 10.0 mi South 3.5 mph - N/A   Clear
8:55 PM 94.3 °F 98.7 °F 67.6 °F 42% 29.88 in 10.0 mi South 3.5 mph - N/A   Clear
9:15 PM 92.7 °F 97.2 °F 68.4 °F 45% 29.88 in 10.0 mi SSE 4.6 mph - N/A   Clear
9:35 PM 92.1 °F 96.2 °F 68.2 °F 45% 29.89 in 10.0 mi South 3.5 mph - N/A   Clear
9:55 PM 91.4 °F 95.4 °F 68.2 °F 46% 29.88 in 10.0 mi SSE 4.6 mph - N/A   Clear
10:15 PM 91.6 °F 95.7 °F 68.0 °F 46% 29.88 in 10.0 mi SSE 4.6 mph - N/A   Clear
10:35 PM 91.9 °F 95.9 °F 67.6 °F 45% 29.88 in 10.0 mi SSE 4.6 mph - N/A   Clear
10:55 PM 91.0 °F 95.2 °F 68.0 °F 47% 29.88 in 10.0 mi South 5.8 mph - N/A   Clear
11:15 PM 90.3 °F 94.3 °F 68.2 °F 48% 29.88 in 10.0 mi SSE 4.6 mph - N/A   Clear
11:35 PM 89.6 °F 93.4 °F 68.2 °F 49% 29.88 in 10.0 mi South 4.6 mph - N/A   Clear
11:55 PM 88.9 °F 93.0 °F 68.4 °F 51% 29.88 in 10.0 mi Calm Calm - N/A   Clear